King Salmon, AK

3:15 AM AKDT on July 26, 2016 (GMT -0800)
Port Heiden

Weather History for PAPH - January, 2014

Change the Weather History Date:

Wednesday, January 1, 2014

  Actual Average Record
Temperature  
Mean Temperature 34 °F -  
Max Temperature 35 °F 26 °F 44 °F (2005)
Min Temperature 32 °F 14 °F -9 °F (2000)
Degree Days  
Heating Degree Days 32    
Moisture  
Dew Point 28 °F    
Average Humidity 77    
Maximum Humidity 87    
Minimum Humidity 65    
Precipitation  
Precipitation 0.00 in - - ()
Sea Level Pressure  
Sea Level Pressure 29.33 in    
Wind  
Wind Speed 16 mph (WSW)    
Max Wind Speed 29 mph    
Max Gust Speed 39 mph    
Visibility 7 miles    
Events      
Averages and records for this station are not official NWS values.
T = Trace of Precipitation, MM = Missing Value Source: NWS Daily Summary

Daily Weather History Graph

Daily Weather History Graph

Search for Another Location

Airport or City:

Trip Planner

Search our weather history database for the weather conditions in past years. The results will help you decide how hot, cold, wet, or windy it might be!

Date:

Astronomy

Jan. 01, 2014 Rise Set
Actual Time 10:12 AM AKST 5:04 PM AKST
Civil Twilight 9:23 AM AKST 5:53 PM AKST
Nautical Twilight 8:33 AM AKST 6:43 PM AKST
Astronomical Twilight 7:46 AM AKST 7:30 PM AKST
Moon 9:55 AM AKST (1/1) 6:23 PM AKST (1/1)
Length of Visible Light 8h 30m
Length of Day
6h 52m
New Moon, 0% of the Moon is Illuminated
Jan 1
New Moon
Jan 7
First Quarter
Jan 15
Full
Jan 23
Last Quarter
Jan 30
New

Hourly Weather History & Observations

Time (AKST) Temp. Windchill Dew Point Humidity Pressure Visibility Wind Dir Wind Speed Gust Speed Precip Events Conditions
12:16 AM 33.8 °F 27.7 °F 26.6 °F 75% 28.89 in 0.5 mi South 6.9 mph - N/A   Overcast
12:36 AM 33.8 °F 28.6 °F 26.6 °F 75% 28.90 in 0.8 mi South 5.8 mph - N/A   Overcast
12:56 AM 33.8 °F 27.0 °F 28.4 °F 81% 28.91 in 0.5 mi SSW 8.1 mph - N/A   Overcast
1:16 AM 33.8 °F 26.4 °F 28.4 °F 81% 28.92 in 1.8 mi SSW 9.2 mph - N/A   Overcast
1:36 AM 33.8 °F 26.4 °F 28.4 °F 81% 28.93 in 1.0 mi SSW 9.2 mph - N/A   Overcast
1:56 AM 33.8 °F 25.8 °F 28.4 °F 81% 28.93 in 0.8 mi SW 10.4 mph - N/A   Overcast
2:16 AM 33.8 °F 24.8 °F 30.2 °F 87% 28.95 in 1.0 mi WSW 12.7 mph - N/A   Overcast
2:36 AM 35.6 °F 26.6 °F 30.2 °F 81% 28.96 in 3.0 mi WSW 13.8 mph - N/A   Overcast
2:56 AM 35.6 °F 26.2 °F 30.2 °F 81% 28.96 in 1.5 mi WSW 15.0 mph - N/A   Overcast
3:16 AM 33.8 °F 20.8 °F 28.4 °F 81% 28.99 in 7.0 mi West 26.5 mph 32.2 mph N/A   Overcast
3:36 AM 32.0 °F 19.5 °F 26.6 °F 80% 29.01 in 1.8 mi West 21.9 mph - N/A   Overcast
3:56 AM 33.8 °F 21.0 °F 26.6 °F 75% 29.03 in 5.0 mi West 25.3 mph 28.8 mph N/A   Overcast
4:16 AM 33.8 °F 23.2 °F 26.6 °F 75% 29.05 in 5.0 mi West 17.3 mph 26.5 mph N/A   Overcast
4:36 AM 33.8 °F 22.8 °F 28.4 °F 81% 29.06 in 5.0 mi West 18.4 mph - N/A   Overcast
4:56 AM 33.8 °F 22.2 °F 26.6 °F 75% 29.08 in 5.0 mi West 20.7 mph 25.3 mph N/A   Overcast
5:16 AM 33.8 °F 23.5 °F 26.6 °F 75% 29.09 in 2.5 mi West 16.1 mph - N/A   Overcast
5:36 AM 33.8 °F 22.8 °F 28.4 °F 81% 29.11 in 2.5 mi West 18.4 mph 26.5 mph N/A   Overcast
5:56 AM 33.8 °F 22.2 °F 26.6 °F 75% 29.12 in 3.0 mi West 20.7 mph 25.3 mph N/A   Overcast
6:16 AM 33.8 °F 22.8 °F 28.4 °F 81% 29.14 in 5.0 mi West 18.4 mph 23.0 mph N/A   Overcast
6:36 AM 33.8 °F 22.2 °F 28.4 °F 81% 29.15 in 10.0 mi West 20.7 mph 25.3 mph N/A   Overcast
6:56 AM 33.8 °F 22.2 °F 26.6 °F 75% 29.16 in 10.0 mi West 20.7 mph - N/A   Overcast
7:16 AM 33.8 °F 22.5 °F 26.6 °F 75% 29.17 in 7.0 mi West 19.6 mph 25.3 mph N/A   Overcast
7:36 AM 33.8 °F 22.8 °F 28.4 °F 81% 29.18 in 7.0 mi West 18.4 mph 23.0 mph N/A   Overcast
7:56 AM 33.8 °F 22.5 °F 26.6 °F 75% 29.19 in 10.0 mi West 19.6 mph 24.2 mph N/A   Overcast
8:16 AM 33.8 °F 23.2 °F 28.4 °F 81% 29.21 in 8.0 mi West 17.3 mph 24.2 mph N/A   Overcast
8:36 AM 33.8 °F 22.8 °F 26.6 °F 75% 29.21 in 10.0 mi West 18.4 mph 23.0 mph N/A   Overcast
8:56 AM 33.8 °F 22.8 °F 28.4 °F 81% 29.23 in 10.0 mi WSW 18.4 mph - N/A   Overcast
9:16 AM 33.8 °F 23.5 °F 28.4 °F 81% 29.24 in 8.0 mi WSW 16.1 mph - N/A   Overcast
9:36 AM 33.8 °F 22.2 °F 28.4 °F 81% 29.25 in 8.0 mi West 20.7 mph 26.5 mph N/A   Overcast
9:56 AM 33.8 °F 21.9 °F 26.6 °F 75% 29.27 in 9.0 mi West 21.9 mph 31.1 mph N/A   Overcast
10:16 AM 33.8 °F 22.2 °F 26.6 °F 75% 29.28 in 8.0 mi West 20.7 mph 31.1 mph N/A   Overcast
10:36 AM 33.8 °F 22.5 °F 28.4 °F 81% 29.29 in 9.0 mi West 19.6 mph 26.5 mph N/A   Overcast
10:56 AM 33.8 °F 22.5 °F 28.4 °F 81% 29.30 in 10.0 mi West 19.6 mph 23.0 mph N/A   Overcast
11:16 AM 35.6 °F 24.8 °F 28.4 °F 75% 29.30 in 10.0 mi West 19.6 mph 26.5 mph N/A   Overcast
11:36 AM 33.8 °F 22.2 °F 26.6 °F 75% 29.31 in 7.0 mi WSW 20.7 mph 29.9 mph N/A   Overcast
11:56 AM 33.8 °F 21.9 °F 28.4 °F 81% 29.33 in 4.0 mi WSW 21.9 mph 31.1 mph N/A   Overcast
12:16 PM 35.6 °F 24.8 °F 28.4 °F 75% 29.34 in 9.0 mi WSW 19.6 mph 27.6 mph N/A   Overcast
12:36 PM 35.6 °F 24.2 °F 28.4 °F 75% 29.35 in 10.0 mi West 21.9 mph 29.9 mph N/A   Mostly Cloudy
12:56 PM 33.8 °F 21.9 °F 28.4 °F 81% 29.36 in 3.0 mi WSW 21.9 mph 29.9 mph N/A   Overcast
1:16 PM 33.8 °F 21.3 °F 28.4 °F 81% 29.37 in 10.0 mi West 24.2 mph 33.4 mph N/A   Overcast
1:36 PM 33.8 °F 22.2 °F 28.4 °F 81% 29.38 in 5.0 mi West 20.7 mph 31.1 mph N/A   Overcast
1:56 PM 33.8 °F 20.5 °F 26.6 °F 75% 29.39 in 5.0 mi West 27.6 mph 35.7 mph N/A   Overcast
2:16 PM 35.6 °F 24.2 °F 28.4 °F 75% 29.39 in 9.0 mi WSW 21.9 mph 31.1 mph N/A   Mostly Cloudy
2:36 PM 33.8 °F 20.3 °F 28.4 °F 81% 29.41 in 3.0 mi West 28.8 mph 38.0 mph N/A   Overcast
2:56 PM 35.6 °F 23.0 °F 28.4 °F 75% 29.41 in 9.0 mi WSW 27.6 mph 38.0 mph N/A   Overcast
3:16 PM 35.6 °F 23.4 °F 28.4 °F 75% 29.43 in 8.0 mi WSW 25.3 mph 31.1 mph N/A   Mostly Cloudy
3:36 PM 35.6 °F 23.2 °F 28.4 °F 75% 29.44 in 5.0 mi WSW 26.5 mph 33.4 mph N/A   Mostly Cloudy
3:56 PM 35.6 °F 24.8 °F 28.4 °F 75% 29.46 in 7.0 mi West 19.6 mph 26.5 mph N/A   Overcast
4:16 PM 33.8 °F 21.6 °F 28.4 °F 81% 29.47 in 5.0 mi West 23.0 mph 31.1 mph N/A   Overcast
4:36 PM 33.8 °F 20.5 °F 26.6 °F 75% 29.49 in 4.0 mi West 27.6 mph 39.1 mph N/A   Overcast
4:56 PM 35.6 °F 24.2 °F 28.4 °F 75% 29.50 in 7.0 mi West 21.9 mph 27.6 mph N/A   Overcast
5:16 PM 33.8 °F 23.2 °F 28.4 °F 81% 29.52 in 7.0 mi West 17.3 mph 28.8 mph N/A   Overcast
5:36 PM 35.6 °F 24.5 °F 28.4 °F 75% 29.53 in 8.0 mi West 20.7 mph 29.9 mph N/A   Mostly Cloudy
5:56 PM 35.6 °F 24.5 °F 28.4 °F 75% 29.54 in 10.0 mi West 20.7 mph 25.3 mph N/A   Overcast
6:16 PM 33.8 °F 22.5 °F 28.4 °F 81% 29.56 in 10.0 mi West 19.6 mph 31.1 mph N/A   Overcast
6:36 PM 33.8 °F 21.0 °F 28.4 °F 81% 29.58 in 9.0 mi West 25.3 mph 33.4 mph N/A   Overcast
6:56 PM 33.8 °F 21.9 °F 26.6 °F 75% 29.59 in 8.0 mi West 21.9 mph 27.6 mph N/A   Overcast
7:16 PM 33.8 °F 23.5 °F 28.4 °F 81% 29.61 in 9.0 mi West 16.1 mph - N/A   Overcast
7:36 PM 33.8 °F 24.3 °F 26.6 °F 75% 29.62 in 10.0 mi West 13.8 mph 19.6 mph N/A   Overcast
7:56 PM 33.8 °F 22.8 °F 26.6 °F 75% 29.63 in 10.0 mi West 18.4 mph 24.2 mph N/A   Overcast
8:16 PM 35.6 °F 25.5 °F 26.6 °F 70% 29.64 in 10.0 mi West 17.3 mph 24.2 mph N/A   Overcast
8:36 PM 33.8 °F 24.3 °F 26.6 °F 75% 29.65 in 10.0 mi West 13.8 mph - N/A   Mostly Cloudy
8:56 PM 33.8 °F 25.8 °F 26.6 °F 75% 29.66 in 10.0 mi West 10.4 mph - N/A   Mostly Cloudy
9:16 PM 33.8 °F 25.3 °F 26.6 °F 75% 29.67 in 10.0 mi West 11.5 mph - N/A   Scattered Clouds
9:36 PM 35.6 °F 27.5 °F 26.6 °F 70% 29.68 in 10.0 mi West 11.5 mph - N/A   Clear
9:56 PM 33.8 °F 27.0 °F 26.6 °F 75% 29.69 in 10.0 mi West 8.1 mph - N/A   Clear
10:16 PM 33.8 °F 27.7 °F 26.6 °F 75% 29.70 in 10.0 mi WSW 6.9 mph - N/A   Clear
10:36 PM 33.8 °F 29.6 °F 26.6 °F 75% 29.71 in 8.0 mi South 4.6 mph - N/A   Mostly Cloudy
10:56 PM 33.8 °F 24.3 °F 28.4 °F 81% 29.72 in 7.0 mi SW 13.8 mph - N/A   Overcast
11:16 PM 33.8 °F 25.3 °F 26.6 °F 75% 29.73 in 8.0 mi SW 11.5 mph - N/A   Mostly Cloudy
11:36 PM 33.8 °F 25.3 °F 26.6 °F 75% 29.74 in 9.0 mi SW 11.5 mph - N/A   Mostly Cloudy
11:56 PM 33.8 °F 25.3 °F 28.4 °F 81% 29.75 in 10.0 mi SW 11.5 mph - N/A   Overcast